Zurück zum Katalog

STARLINK-35162

AktivKommunikationSSO
NORAD 65613·PAYLOAD·🇺🇸 United States

Gestartet Sep 13, 2025 von Cape Canaveral Space Force Station

Loading…

Nächste Überflüge (nächste 24 Stunden)

TLE

AktuellSource: CelesTrak SupGP

Epoche: Sep 15, 2026, 03:44 UTC

1 65613C 25207X   26258.15604167  .00026779  00000+0  16280-2 0  2587
2 65613  97.2843 320.8410 0001552  91.7757 284.2375 15.10536858    17

Verfolge STARLINK-35162 in Echtzeit mit AllMySat

Download on the App Store